Wind_Speed
36 37 37 37 37 36 36 36 37 37 37 37 36 36 35 34 33 32 31 30 29 29 28 27 27 27 27 26 26 25 24 23 22 22 22 24 25 27 29 30 31 32 33 33 34 35 36 37 37 38 38 36 35 34 35 35 33 31 27 24 23 22 21 20 19 19 19 19 20 21 24 26 27 28 29 30 31 31 31 31 31 31 30 29 30 30 30 30
36 37 38 39 39 39 38 38 39 39 39 38 38 38 37 36 36 35 34 33 32 31 30 29 29 28 28 27 27 26 25 24 23 22 22 23 24 26 28 30 31 33 33 34 34 35 36 36 36 37 38 38 37 36 35 35 34 32 29 25 23 22 21 20 20 20 20 20 20 20 21 24 25 26 28 30 31 31 31 30 29 29 29 29 30 30 30 31
37 38 39 40 40 41 41 41 41 41 41 40 40 39 39 39 38 37 37 36 34 33 33 32 31 30 30 29 28 27 27 25 24 23 23 23 24 26 27 29 31 33 34 34 35 35 36 36 36 35 37 38 37 37 36 36 35 34 31 28 25 23 22 21 21 21 21 21 21 20 20 22 24 25 27 28 30 31 30 29 29 30 30 30 30 30 30 31
38 39 40 41 41 42 43 43 43 43 43 42 42 41 41 40 40 40 39 38 37 36 35 34 34 33 32 31 30 29 28 26 25 24 24 24 25 26 27 29 31 33 34 35 35 36 36 36 36 36 36 36 37 36 36 36 36 35 32 30 27 25 24 22 21 21 21 22 22 21 20 21 22 24 25 27 28 28 29 29 30 31 31 31 31 31 32 33
39 40 41 42 42 43 44 44 45 45 45 44 44 43 43 42 42 41 41 41 39 38 37 36 36 35 34 33 32 31 29 28 27 26 26 25 26 27 28 29 31 33 35 36 36 37 36 37 37 36 36 37 37 35 34 34 34 34 33 31 29 27 26 25 23 22 22 22 23 23 22 21 22 23 25 25 27 28 29 30 31 31 31 32 32 33 34 36
41 41 42 43 43 44 45 45 46 46 47 46 45 45 44 44 44 43 43 43 42 41 39 39 38 37 36 35 34 32 31 29 29 28 27 27 27 28 29 30 32 33 35 36 37 37 37 37 37 38 38 38 38 36 33 32 32 32 32 31 29 28 27 27 25 24 24 24 24 24 23 22 22 23 25 26 27 29 30 30 31 31 32 33 35 36 37 38
42 43 43 44 44 44 45 46 47 48 48 48 47 47 46 46 46 45 45 44 44 43 41 41 40 39 38 37 35 34 33 31 30 29 29 28 28 29 30 31 32 33 35 37 38 37 36 37 38 38 39 39 39 37 34 32 31 31 31 30 29 29 28 27 27 26 26 26 26 26 25 24 24 25 26 27 28 30 31 32 32 33 34 36 37 38 39 39
43 43 44 44 45 45 46 47 48 48 49 50 49 49 48 47 47 47 46 46 45 44 43 42 41 40 39 38 37 36 34 33 32 31 30 30 29 30 30 32 33 34 35 37 39 38 37 37 38 39 39 40 40 38 35 33 32 32 31 30 29 29 28 28 28 27 27 27 28 28 28 27 27 27 28 29 31 32 33 33 34 35 37 38 39 39 40 40
44 44 45 45 45 45 46 47 48 49 50 50 51 50 50 49 48 48 48 47 46 46 45 44 43 42 41 40 39 37 36 35 33 33 32 31 31 31 31 32 33 34 35 37 39 39 38 38 38 39 40 40 40 39 36 34 33 33 32 31 30 29 29 29 29 29 29 29 30 30 31 30 29 29 31 32 33 34 35 36 37 38 39 40 40 41 41 41
44 44 45 45 45 45 46 47 48 49 50 51 52 52 51 51 50 50 49 48 48 47 47 46 45 43 42 41 40 39 38 36 35 34 33 33 33 33 33 33 34 35 36 37 39 40 39 39 39 39 40 40 40 39 36 35 34 34 33 32 32 31 30 30 30 30 30 31 32 33 35 34 32 32 33 35 36 37 38 39 39 40 41 42 42 42 42 40
44 45 45 45 45 45 46 47 48 49 50 52 52 53 53 53 52 51 51 50 49 48 47 47 46 45 44 43 41 40 39 37 36 35 35 34 34 34 34 34 34 35 36 37 39 40 41 41 40 40 40 40 40 38 36 35 35 35 34 34 33 32 32 32 32 32 32 32 33 35 38 36 35 35 36 37 39 40 41 41 42 43 44 44 44 43 41 40
45 45 46 46 46 46 46 47 48 48 50 51 53 53 54 54 53 53 52 51 50 50 48 48 48 47 46 45 43 42 41 39 38 37 36 36 35 36 36 36 35 36 36 37 38 40 42 43 42 41 40 39 39 38 36 35 35 36 35 35 35 34 33 33 32 32 32 33 33 35 38 37 35 36 37 38 39 40 41 42 43 44 45 45 44 43 42 42
44 45 46 47 47 47 47 47 47 48 49 51 52 54 54 54 54 54 54 53 52 51 50 49 49 48 48 47 45 43 42 41 40 38 38 37 37 37 37 37 37 37 37 37 38 40 43 45 45 43 40 39 39 39 37 35 35 36 36 37 37 36 35 34 33 33 32 32 32 33 37 38 35 35 37 38 38 40 41 42 42 43 44 44 44 44 44 45
43 44 46 47 47 48 48 48 48 48 49 50 51 53 54 55 55 55 55 55 54 53 51 50 49 49 49 49 46 44 44 43 41 40 39 39 38 38 38 38 39 39 38 39 39 41 43 45 46 44 41 39 39 39 37 35 35 35 36 37 38 38 36 35 35 35 34 34 33 32 36 39 37 36 37 37 39 40 41 41 42 43 43 44 45 46 47 47
40 42 44 46 47 48 48 48 49 49 48 49 50 51 53 55 55 55 55 55 55 54 53 52 51 50 50 50 48 46 45 44 43 42 41 40 40 40 39 39 40 40 40 41 41 42 44 45 46 44 42 39 39 40 38 35 35 34 35 36 38 38 37 36 36 37 37 36 35 33 34 38 38 37 38 38 39 40 41 42 42 43 45 47 48 49 48 47
38 40 41 43 45 47 48 48 49 49 49 49 50 50 52 53 54 55 55 56 55 55 54 53 52 50 51 51 49 48 47 46 45 44 43 42 42 41 41 41 41 42 43 43 42 43 44 45 46 45 42 40 40 41 39 36 35 34 35 36 36 37 38 38 38 38 38 38 37 34 34 38 38 38 39 40 41 42 43 43 44 45 47 49 49 50 49 49
38 38 39 40 42 44 46 47 49 49 49 49 49 49 50 52 53 54 55 56 55 55 54 54 53 52 52 52 51 50 48 47 47 46 45 44 43 43 42 42 42 43 45 45 44 44 45 46 46 46 43 41 40 41 40 38 36 34 35 35 35 36 37 38 38 38 38 38 38 36 35 39 41 40 41 43 43 45 46 46 47 48 49 49 50 50 50 50
37 38 38 39 40 42 44 45 47 48 49 48 49 49 49 50 51 52 54 55 55 55 54 54 53 53 53 53 53 52 50 49 48 47 47 46 45 44 44 44 44 45 46 47 46 46 46 47 47 46 44 42 41 41 40 39 38 36 35 35 36 37 38 38 37 37 37 38 39 37 35 39 43 43 43 44 46 48 49 49 49 49 49 50 51 52 52 52
37 38 38 39 39 40 42 43 45 47 48 48 47 48 48 48 49 50 52 53 54 55 55 54 54 54 54 54 54 54 53 52 50 49 48 47 46 46 46 46 46 47 48 48 48 48 48 48 48 47 45 44 42 42 41 40 39 38 36 37 37 39 40 40 38 37 37 36 38 38 35 38 42 44 44 44 46 48 48 48 48 49 50 51 53 54 54 55
38 38 39 39 39 40 41 42 43 44 47 47 47 47 47 46 46 47 49 51 52 54 54 54 54 54 54 55 55 55 55 54 52 51 50 49 48 48 48 48 48 49 49 50 50 49 49 48 49 48 47 45 43 43 42 41 40 39 38 38 39 39 40 42 41 39 37 34 37 38 35 37 42 45 47 46 46 49 48 48 49 51 52 54 55 55 56 56
40 40 39 39 39 40 40 41 42 42 44 47 47 47 46 46 45 45 46 49 50 51 53 53 53 54 54 55 56 56 56 55 54 53 52 51 50 50 50 50 50 50 50 51 51 51 50 49 50 50 48 47 45 44 43 42 42 41 40 40 41 41 40 42 42 40 39 35 35 37 33 36 43 48 52 51 51 54 54 53 55 56 56 57 58 58 58 58
44 43 41 41 40 41 40 41 41 42 43 45 46 46 46 46 45 44 44 46 48 49 51 52 52 52 53 55 56 56 56 57 56 55 54 53 52 52 52 52 52 52 52 52 52 52 51 50 50 51 49 48 47 46 44 43 43 44 43 42 42 43 41 42 43 41 41 38 36 37 32 35 43 50 55 56 57 60 59 59 61 61 61 61 61 61 61 62
48 46 45 44 43 43 42 42 42 42 43 44 45 45 45 45 45 45 43 44 46 48 49 50 51 51 52 55 57 57 57 57 56 56 56 54 55 55 54 55 55 54 54 53 53 52 53 52 51 51 51 50 49 48 47 45 46 46 46 44 44 45 43 42 42 42 43 42 39 38 31 33 42 49 55 59 61 63 63 63 64 64 64 64 64 64 64 64
51 50 49 48 47 46 45 44 43 43 43 44 45 45 45 45 45 45 44 42 43 47 49 49 48 49 52 55 57 57 58 57 57 58 57 56 57 57 57 57 56 56 55 54 53 53 54 53 52 52 52 51 51 50 49 47 48 49 49 47 46 47 47 44 43 42 43 44 44 42 31 28 38 47 54 59 63 67 66 66 67 66 66 66 65 65 65 65
54 53 52 52 51 49 48 47 46 46 45 44 44 44 44 45 45 45 45 43 41 45 49 48 47 49 52 55 57 57 57 57 58 58 58 58 58 58 58 58 57 57 56 55 54 55 56 55 52 53 53 53 53 53 53 51 51 52 53 51 49 49 50 48 47 43 42 42 46 49 36 24 32 44 53 60 64 67 69 70 70 69 67 66 66 65 65 65
57 56 55 55 54 53 51 50 50 49 47 47 45 44 44 44 45 45 45 44 39 43 48 47 47 51 53 56 57 56 56 57 57 58 58 59 59 58 58 58 58 58 57 56 55 56 57 55 54 54 54 54 55 55 56 55 54 54 56 55 53 53 52 52 51 48 45 40 43 55 46 26 29 42 53 63 65 67 72 73 72 71 68 67 67 66 66 65
60 58 57 57 57 56 54 52 53 52 51 50 47 46 45 44 44 44 46 44 37 40 47 47 50 53 54 57 58 56 56 57 57 58 58 59 59 59 58 59 60 58 58 58 56 57 57 55 55 56 56 56 57 58 59 59 58 57 58 58 57 57 56 56 55 52 50 42 42 58 55 34 30 42 55 65 66 68 75 76 74 72 70 68 68 68 67 65
63 62 60 60 59 58 56 55 55 54 54 52 50 50 48 46 45 44 45 43 36 37 45 50 52 54 55 58 58 57 57 57 58 58 58 60 59 59 59 60 61 60 60 59 56 58 58 56 57 58 58 59 60 61 61 61 61 59 60 60 60 60 59 59 58 57 55 46 45 59 60 44 36 44 58 66 66 70 77 79 76 74 71 69 68 68 67 65
66 65 64 63 63 62 60 59 58 58 57 55 54 53 51 49 47 45 44 40 35 37 45 51 53 55 57 58 57 58 57 57 58 58 59 61 60 60 60 61 61 61 61 60 58 59 59 58 59 60 61 61 62 63 63 63 62 61 61 62 62 61 61 61 59 60 58 50 50 59 59 52 44 46 59 66 67 72 78 79 77 75 71 69 70 69 67 66
67 67 67 66 65 65 65 63 63 62 61 59 57 55 54 52 49 48 44 39 37 41 46 51 53 55 57 58 58 58 58 58 59 60 60 61 61 60 61 62 63 63 62 61 60 60 60 59 60 62 63 63 63 63 63 63 62 62 63 63 63 62 62 61 59 61 60 53 54 59 57 56 52 52 61 67 69 74 79 79 78 75 72 71 71 70 69 71
67 67 68 67 66 67 67 66 66 66 65 63 61 59 57 54 52 49 44 41 44 45 47 51 54 56 57 58 58 58 59 59 59 60 61 60 60 61 62 63 65 65 63 62 62 62 61 61 62 64 65 64 64 64 64 64 64 64 64 64 65 64 63 62 61 63 62 56 57 58 57 59 58 59 64 66 69 76 79 79 77 74 72 71 71 71 71 72
67 68 68 68 68 69 69 68 68 68 67 66 66 63 60 57 52 48 45 48 51 49 49 54 55 56 57 57 57 58 59 59 59 60 61 60 60 61 63 65 66 67 64 63 65 63 62 63 64 66 66 66 65 65 65 66 66 66 67 68 68 67 67 64 63 65 63 59 60 60 60 61 60 62 65 66 70 77 79 77 75 72 71 71 71 70 71 73
67 67 67 68 69 70 70 70 70 70 69 69 68 65 63 58 50 47 50 54 56 54 55 57 56 57 58 57 58 59 59 59 60 62 62 62 62 62 64 65 68 69 68 67 67 66 64 62 65 68 67 66 67 68 68 68 69 69 70 71 71 72 72 68 66 66 63 61 62 64 65 62 60 62 64 65 70 75 77 76 74 72 71 72 71 71 73 75
66 66 66 67 68 70 71 72 72 72 72 72 70 68 64 56 49 51 55 58 60 60 59 60 60 60 60 59 60 61 62 62 62 63 64 63 63 63 65 67 70 73 73 72 70 68 65 61 64 69 68 68 69 70 71 71 72 73 73 74 73 75 78 75 71 70 68 64 63 66 68 63 60 61 62 64 69 74 77 77 75 73 73 74 74 75 76 77
67 67 66 67 68 69 71 72 72 73 74 73 73 70 61 54 53 57 59 61 64 64 63 64 64 63 62 62 62 63 65 65 64 65 65 64 64 64 66 69 73 75 76 77 75 72 68 63 65 69 69 69 71 72 73 74 75 76 75 75 76 78 82 82 78 75 74 71 63 64 67 62 59 59 60 65 70 74 77 76 75 75 76 77 77 77 78 79
71 70 69 69 70 71 72 72 72 74 74 74 73 65 57 56 60 62 62 64 67 67 68 68 67 65 65 64 65 66 68 69 68 68 67 67 67 66 68 71 75 77 80 81 80 77 73 69 68 71 70 71 73 74 75 76 79 79 76 76 79 81 83 84 83 78 78 76 66 64 67 62 58 58 60 66 71 72 76 76 75 76 78 79 78 77 80 81
76 74 72 72 74 75 74 74 75 75 74 75 70 59 54 58 62 64 66 68 70 71 72 71 69 69 68 67 68 69 72 72 71 71 71 71 70 68 69 73 75 78 81 83 83 81 79 75 72 73 73 73 75 76 76 78 81 81 78 78 80 82 83 84 84 79 79 80 71 66 67 63 60 60 60 66 71 72 76 78 77 78 80 79 78 80 82 83
80 78 75 74 78 80 79 78 78 77 77 75 66 56 55 59 61 66 70 73 75 76 75 74 72 72 71 70 70 72 74 74 73 74 74 74 72 69 70 74 76 78 81 84 84 83 84 81 76 75 76 76 76 77 78 81 82 81 78 80 81 82 83 83 83 81 81 84 78 71 69 64 62 64 65 69 73 75 79 80 79 80 80 80 81 82 84 84
83 81 78 77 83 86 84 82 82 81 80 74 65 60 60 60 61 65 70 74 77 78 77 77 77 77 75 73 74 75 76 76 75 77 77 75 73 70 71 75 77 79 82 85 86 85 87 87 82 78 79 79 78 79 81 82 82 80 79 80 80 81 83 83 83 83 84 87 84 79 74 65 63 68 71 73 74 77 81 81 79 81 82 83 84 85 86 88
85 83 80 80 86 91 89 88 87 85 81 74 68 65 64 62 63 66 71 75 77 77 78 78 79 80 78 78 78 78 79 79 78 79 79 77 75 73 75 78 80 83 85 87 88 89 91 93 89 83 80 80 80 82 83 82 82 81 80 81 80 82 84 84 84 84 85 89 88 88 84 67 62 70 74 73 75 79 83 83 82 85 86 86 87 88 91 93
89 86 82 83 89 94 94 93 90 87 84 78 72 70 68 67 67 69 72 76 77 78 77 77 77 79 79 81 82 82 83 83 82 82 81 79 79 79 80 82 85 86 88 90 92 93 96 97 93 86 83 82 81 82 82 81 82 82 82 82 82 83 85 87 88 84 86 89 88 94 91 69 64 75 78 75 78 83 86 86 85 87 87 88 90 92 94 96
92 89 86 88 92 96 98 97 92 89 87 81 77 76 75 73 71 70 72 76 78 78 78 78 78 79 79 80 82 83 85 85 83 82 82 81 82 84 85 87 89 91 93 95 96 98 100 99 94 88 84 82 81 80 80 81 82 83 83 82 83 85 87 91 92 88 89 88 87 97 94 72 69 82 81 78 83 87 89 87 86 87 88 90 93 95 96 98
93 91 91 92 94 97 100 98 92 89 87 84 83 83 81 79 75 72 73 75 78 79 81 81 80 80 80 80 82 82 82 82 79 78 80 82 83 85 88 90 92 94 96 97 98 100 100 97 93 88 84 82 81 80 80 82 84 85 83 83 85 87 89 92 93 93 92 87 89 100 94 76 77 86 84 82 87 89 88 86 85 87 89 93 96 97 99 100
95 95 95 95 97 98 99 95 92 92 90 89 88 87 86 85 81 77 75 77 80 81 83 82 80 81 82 83 84 82 81 82 79 79 83 85 84 85 89 91 93 95 97 97 98 99 97 95 92 90 86 83 82 81 81 84 87 87 84 85 88 89 90 92 94 95 92 88 94 101 93 82 84 89 87 86 87 87 86 85 87 91 95 98 100 100 101 101
99 99 98 97 99 98 95 92 94 95 94 93 93 91 90 89 85 81 81 82 81 81 82 82 82 83 85 85 85 84 84 85 86 86 87 87 86 87 89 92 94 96 97 98 98 98 97 95 93 91 89 85 82 81 84 88 89 88 86 87 89 89 90 93 95 96 93 93 99 96 91 90 89 89 91 90 88 88 87 90 94 97 100 102 102 102 103 105
105 103 101 100 102 101 97 95 97 98 97 97 98 96 94 91 88 86 87 86 84 83 84 83 83 85 86 86 87 88 89 90 93 92 89 87 87 88 90 94 97 98 98 98 98 99 99 97 93 91 91 89 85 85 88 91 91 89 88 88 89 89 90 92 94 95 96 101 99 91 93 97 88 86 96 97 92 93 95 99 102 102 104 105 105 106 108 110
112 108 104 104 106 106 102 100 100 100 100 101 102 99 96 93 90 86 85 85 86 88 88 86 84 84 84 85 89 92 92 93 94 92 87 85 87 89 92 95 97 97 97 97 99 99 100 97 92 92 94 93 90 89 92 95 94 92 91 89 90 91 90 92 96 97 99 104 100 91 97 99 86 85 99 102 99 101 102 104 106 106 108 109 109 112 114 115
117 113 110 110 111 110 106 103 103 105 106 105 104 100 96 92 88 84 82 85 89 91 91 88 86 85 85 89 93 94 94 93 92 88 87 88 90 93 96 96 95 95 96 98 99 99 100 96 92 95 98 95 93 93 95 99 98 96 93 92 93 94 93 97 100 99 101 105 101 96 98 94 86 91 103 106 106 107 107 108 110 110 110 111 113 116 117 118
122 120 118 118 117 115 111 108 108 110 110 108 105 102 98 93 91 90 91 93 94 93 92 91 88 87 91 95 97 97 94 92 90 89 91 94 97 99 100 98 95 95 97 98 98 99 101 98 95 98 100 97 94 95 99 102 101 99 96 92 95 99 100 102 101 99 103 105 103 101 98 91 89 98 105 106 108 110 111 113 113 112 113 115 117 119 120 122
125 124 124 125 125 124 120 116 114 114 112 112 110 105 99 96 95 97 100 101 98 95 94 92 87 89 95 100 102 99 92 89 91 93 97 101 103 103 102 98 95 96 98 98 98 100 101 99 97 100 103 98 95 98 102 102 102 103 96 90 97 106 106 103 101 102 105 107 104 101 97 91 92 100 104 105 109 112 113 115 116 117 119 120 121 122 122 123
128 127 127 129 130 130 128 124 122 119 116 116 113 107 103 101 99 101 104 104 101 98 97 94 91 92 99 102 100 94 88 90 96 100 101 104 105 104 102 99 96 97 97 96 98 100 102 101 101 104 106 100 96 100 103 103 106 104 93 90 101 109 105 102 104 106 106 105 101 97 95 95 97 101 104 106 110 113 116 118 120 122 123 124 124 123 123 123
135 134 134 133 133 133 132 130 128 126 122 119 115 110 109 107 103 105 108 105 100 98 99 98 96 97 100 99 93 88 90 97 102 103 104 105 105 104 103 100 97 96 96 97 98 100 102 103 103 105 107 103 99 101 103 105 107 100 92 96 105 105 104 106 106 103 101 101 99 97 98 100 102 104 107 110 114 117 120 122 124 126 126 125 125 124 124 123
Wind_Direction
259 258 256 254 252 249 246 244 242 241 243 245 247 249 251 251 252 252 252 254 256 258 261 263 266 269 271 275 278 283 288 292 297 301 305 309 313 316 317 318 319 321 324 327 330 332 335 336 337 336 337 336 335 335 336 338 341 344 345 345 346 346 345 341 337 332 325 318 313 309 304 298 295 297 300 302 306 310 313 316 319 321 322 323 323 323 324 325
257 256 256 256 255 252 249 246 244 242 242 243 245 248 249 251 251 252 252 252 253 255 258 260 263 266 268 272 275 279 283 287 292 296 300 306 310 314 316 317 318 320 321 324 327 329 330 332 334 335 335 334 332 332 332 333 336 339 342 343 345 348 347 346 342 338 331 325 323 320 313 305 301 300 300 301 305 310 314 316 317 318 319 320 321 321 321 322
255 254 255 255 256 255 253 249 246 244 243 243 244 246 248 250 251 252 252 252 252 253 256 258 260 263 265 268 272 276 279 283 287 291 295 301 306 310 313 315 316 317 319 321 324 326 326 328 331 333 333 332 330 329 329 330 332 333 336 338 341 345 346 346 345 341 336 331 328 327 322 314 309 306 305 305 308 311 314 314 315 316 317 319 319 319 319 320
254 253 253 254 255 256 255 252 249 246 244 243 243 245 246 248 249 251 252 252 252 252 254 256 259 261 263 266 268 272 276 280 283 287 291 295 301 305 309 312 313 314 317 319 322 324 324 325 328 330 330 331 329 326 325 326 327 327 330 332 335 338 340 342 342 340 337 333 331 331 328 321 315 311 309 309 310 311 312 312 314 315 317 319 319 319 319 320
254 253 253 253 255 255 256 255 252 249 246 244 244 244 245 247 248 249 251 252 252 252 253 254 257 259 262 264 266 269 273 276 280 284 287 291 296 302 306 309 310 312 315 318 320 322 323 324 325 326 327 328 327 325 322 322 323 323 324 326 329 331 332 334 336 335 334 332 330 331 331 326 320 315 312 312 311 310 311 311 313 315 316 318 319 320 320 321
254 253 253 253 254 255 256 256 254 252 249 246 245 245 245 246 247 248 250 252 253 253 253 254 255 257 260 262 265 268 270 273 277 281 284 288 293 298 302 306 308 310 313 316 318 321 322 323 323 323 325 327 326 324 320 318 319 319 319 321 323 324 325 327 328 328 328 328 326 326 327 325 321 317 314 312 310 309 308 309 311 313 314 316 319 320 320 320
255 254 254 254 254 255 256 256 255 254 252 249 247 246 246 246 247 248 249 251 253 254 254 254 255 257 259 261 263 266 269 272 275 278 281 285 290 295 299 302 305 308 311 314 316 318 320 321 321 322 323 325 326 324 320 317 316 317 316 316 317 317 317 318 320 320 321 322 320 320 320 320 319 316 311 308 306 305 304 306 308 310 312 315 317 318 318 318
258 257 256 256 256 256 257 257 256 255 254 253 251 249 247 247 248 249 250 251 253 254 255 255 256 257 259 261 263 264 267 270 273 276 279 282 287 291 295 299 302 306 309 312 313 315 317 318 320 320 322 324 325 323 320 316 315 316 315 314 313 312 311 311 311 312 313 314 314 313 312 314 315 312 307 304 302 302 302 304 306 308 310 312 314 315 315 315
263 262 261 259 259 259 259 259 258 257 256 255 254 252 251 250 249 250 251 251 253 254 256 256 256 257 258 260 262 263 265 268 271 273 276 280 285 289 292 296 300 304 308 310 311 312 314 317 319 320 320 323 324 322 318 315 315 315 314 312 311 309 308 306 305 305 306 307 308 307 306 309 312 308 304 301 300 301 301 303 305 307 308 309 311 312 313 313
267 267 266 265 264 263 262 262 261 260 258 257 256 255 254 253 252 252 252 253 253 254 256 257 257 257 258 260 261 263 265 267 269 272 275 278 282 287 290 293 297 301 305 308 309 310 312 315 318 319 319 321 324 321 317 314 314 314 314 312 311 309 307 305 302 300 301 302 303 302 302 306 308 306 302 300 301 301 301 302 304 305 306 307 309 310 312 312
270 270 270 269 269 268 267 266 265 263 262 260 259 257 256 256 255 254 254 254 255 255 256 258 258 259 259 260 261 263 265 267 268 271 274 277 281 285 288 291 294 299 303 305 307 308 309 311 315 317 317 319 322 321 316 312 312 313 313 313 312 310 307 305 303 301 301 300 301 300 299 303 305 303 301 301 301 301 300 301 303 304 306 306 307 309 310 312
271 271 271 271 271 271 271 270 269 268 265 263 261 260 259 258 257 257 257 257 257 257 258 258 259 260 260 261 262 263 265 267 268 270 272 276 279 283 287 290 293 296 300 302 305 306 307 308 311 314 315 316 319 320 315 310 309 311 312 312 311 311 309 308 306 304 302 301 301 300 299 302 304 302 301 301 300 300 299 299 301 304 305 306 307 308 311 312
271 271 270 270 270 271 271 271 271 270 269 267 265 263 262 261 260 259 259 259 259 259 259 260 260 261 261 262 262 264 266 267 268 270 272 275 278 282 286 289 292 295 297 300 303 304 305 306 308 311 313 314 316 317 314 308 307 308 310 311 310 311 310 310 309 307 304 302 301 302 301 302 305 303 302 302 301 301 299 300 302 304 305 305 307 309 311 312
271 271 270 270 270 270 270 271 271 271 270 270 268 266 265 264 263 262 261 261 261 261 261 261 261 262 262 263 263 265 266 268 269 271 272 274 278 281 285 288 291 293 295 298 301 302 303 304 307 309 310 310 312 314 312 307 304 305 306 308 309 309 310 310 311 310 308 305 304 305 304 304 306 305 304 305 304 303 302 303 305 306 306 307 309 311 312 311
272 271 271 271 271 270 270 270 270 270 270 271 270 269 268 267 266 265 264 263 263 263 263 263 263 264 264 264 265 265 266 268 270 272 273 274 277 280 283 287 290 292 294 297 299 300 301 303 305 306 307 307 309 311 310 305 302 302 303 305 307 308 309 310 312 312 311 308 307 308 306 304 306 307 307 308 306 304 304 305 307 307 308 309 310 311 311 311
273 273 272 272 271 271 271 271 271 271 270 271 271 271 270 269 269 268 266 265 265 265 264 264 265 265 266 266 266 266 267 268 270 271 273 275 277 279 282 286 289 291 293 296 298 299 300 302 303 304 304 304 306 308 308 304 300 299 300 302 304 306 307 309 312 313 312 309 309 310 308 305 306 308 309 309 307 305 304 306 307 307 308 308 309 310 311 310
275 275 275 274 273 272 271 271 271 271 271 271 271 271 271 271 271 270 269 268 267 266 266 265 265 266 266 267 268 267 268 269 270 272 274 275 277 279 282 284 287 290 292 294 297 298 300 301 302 302 301 302 303 306 306 303 299 297 297 299 300 302 304 306 310 312 311 309 308 311 311 307 307 308 308 308 307 305 305 305 306 306 307 307 307 308 309 309
277 277 277 277 276 274 273 272 271 271 271 270 271 271 271 271 271 271 271 270 269 268 267 266 266 266 266 267 268 268 268 269 271 272 274 276 277 279 282 283 286 289 291 293 296 298 299 299 300 299 299 299 300 303 303 302 299 296 295 297 298 300 301 303 307 309 309 307 305 309 311 308 307 308 308 307 305 304 303 304 305 306 307 307 307 308 308 309
276 278 279 279 278 277 276 275 273 271 270 270 269 270 270 270 271 271 271 271 271 270 268 267 267 266 266 268 268 269 270 270 272 273 275 276 278 279 281 282 285 288 291 293 295 297 298 298 297 297 296 296 297 301 301 300 299 295 294 295 297 299 300 302 305 306 306 305 303 307 311 309 308 309 308 308 306 303 302 304 306 307 308 308 309 308 308 308
272 275 277 278 279 279 279 278 276 274 272 271 269 269 269 269 269 270 271 272 272 271 270 269 268 267 267 268 268 270 270 271 272 273 275 276 278 279 280 282 285 288 291 293 294 296 296 296 296 295 294 293 295 298 300 299 297 295 293 293 294 296 298 300 302 304 304 303 301 304 312 311 309 310 309 309 308 305 304 306 308 308 309 309 309 309 309 307
269 271 273 276 278 279 280 280 279 277 275 273 272 270 269 268 268 268 270 271 271 271 271 270 269 268 268 268 269 270 271 272 273 274 275 276 278 279 280 282 285 288 291 292 293 294 294 294 294 293 292 292 292 296 298 297 295 295 292 291 292 293 295 297 299 302 303 301 298 300 310 313 311 311 310 310 309 307 307 309 309 309 309 309 309 309 308 307
269 269 271 273 275 277 279 280 280 280 278 276 275 273 271 270 268 268 268 270 271 271 271 271 270 269 269 269 269 270 271 272 274 275 276 277 278 279 281 284 286 289 290 291 291 292 293 292 292 291 291 290 291 293 296 296 293 293 292 290 290 291 293 294 296 299 300 300 297 297 307 314 312 311 309 309 309 307 309 310 310 310 310 310 309 308 307 306
269 270 270 272 273 275 277 279 280 280 279 278 276 275 274 272 269 268 268 268 271 271 271 270 270 270 269 269 269 270 271 272 274 275 276 278 279 281 283 285 287 289 289 289 290 291 291 291 290 290 290 289 290 291 295 295 293 291 291 290 289 290 291 291 293 296 298 299 295 293 302 311 310 309 308 309 309 307 310 311 310 310 310 309 309 308 307 306
269 269 271 271 272 273 275 276 277 278 278 278 277 277 276 274 272 270 268 268 270 272 272 271 271 270 269 268 269 269 270 272 274 275 276 278 279 281 283 285 286 287 288 288 288 289 289 289 289 289 289 289 289 290 293 295 293 291 290 290 289 289 290 290 290 293 295 298 296 291 294 307 311 309 308 308 307 308 311 311 309 309 308 308 308 309 309 308
268 270 271 271 272 272 273 274 275 275 276 277 277 277 276 275 274 272 270 268 269 271 272 272 273 271 269 268 268 268 269 271 272 274 276 277 279 281 282 284 285 286 286 287 287 288 288 288 288 288 288 288 288 289 292 294 294 293 291 290 290 289 291 291 291 293 293 295 296 292 289 301 309 307 306 304 304 308 310 309 307 307 307 308 310 311 310 309
268 269 270 271 272 271 271 272 273 273 274 274 275 276 276 276 275 274 272 270 270 272 273 274 273 271 270 269 268 268 269 270 271 273 275 277 278 280 282 283 284 284 285 285 286 287 286 287 288 287 288 288 288 289 292 293 295 294 292 291 291 290 291 292 292 295 293 294 297 293 289 295 306 307 305 301 303 308 309 307 306 306 307 309 311 311 310 309
268 269 269 270 271 271 271 271 271 272 272 272 273 274 274 275 275 274 273 272 272 274 275 274 271 269 269 269 269 269 270 271 272 273 275 276 278 279 281 282 283 283 283 284 285 285 284 286 287 288 288 288 288 290 292 294 295 295 294 293 292 291 291 291 292 294 293 294 297 294 293 296 306 310 304 300 304 309 307 306 306 307 307 309 310 310 309 309
268 269 269 269 269 270 270 270 271 271 271 271 272 272 272 273 273 274 274 273 274 276 275 273 270 269 269 269 269 270 271 272 273 275 276 277 278 280 281 281 282 282 282 282 283 283 283 285 286 287 287 287 289 291 293 295 296 297 296 295 294 293 292 291 291 293 292 294 295 294 297 301 310 312 303 300 306 307 305 304 305 306 307 309 310 310 309 308
269 269 269 269 269 269 269 270 270 271 271 270 270 270 270 270 271 272 272 275 277 274 272 271 271 270 269 269 269 270 271 272 274 275 276 277 278 279 280 280 280 281 281 281 281 281 282 284 285 286 287 288 290 292 294 295 297 297 297 296 295 294 293 291 291 292 291 294 294 294 298 303 311 312 303 302 307 306 303 303 304 306 307 308 309 309 308 306
268 269 269 269 270 270 270 269 269 270 270 270 269 269 269 269 270 270 272 276 276 270 268 270 271 270 270 270 270 271 272 273 273 274 275 276 278 278 279 279 280 280 280 280 280 280 281 283 284 285 286 288 290 292 294 295 296 296 296 296 295 294 293 292 293 292 291 293 294 295 300 304 310 310 303 304 307 303 301 302 304 306 308 308 308 307 306 306
268 268 269 270 270 270 270 270 270 269 269 269 269 269 269 268 269 270 274 275 271 267 268 269 269 270 270 271 272 273 273 273 274 275 275 276 277 278 279 279 279 279 279 280 279 279 281 283 284 285 286 288 290 292 293 295 296 296 296 295 295 294 293 293 294 293 293 295 295 296 300 304 308 307 304 306 305 301 300 302 304 306 307 308 308 307 307 306
267 268 269 269 270 270 270 270 270 270 270 269 269 268 269 268 270 273 275 272 268 267 267 267 267 269 271 272 273 273 274 275 275 275 276 276 277 278 278 279 279 278 278 278 278 279 281 283 284 285 286 288 290 292 293 294 295 296 296 296 295 295 293 293 293 293 294 296 296 298 300 303 306 305 305 307 304 300 300 301 303 305 307 308 307 307 307 307
265 267 268 269 270 270 270 270 269 269 269 269 268 268 268 269 272 275 272 270 269 266 265 266 267 269 270 271 273 274 275 275 274 275 275 276 277 278 278 278 279 279 278 277 277 278 280 283 285 285 286 289 290 291 293 294 294 295 296 296 296 296 294 293 292 291 293 294 296 299 300 302 304 305 306 305 301 299 300 301 303 305 307 307 306 307 307 307
264 265 267 268 269 270 270 270 270 269 269 268 268 268 268 270 273 272 270 269 269 267 266 267 267 267 268 270 271 273 274 273 274 274 275 275 277 277 278 278 279 279 279 278 277 278 280 282 283 284 286 289 290 291 292 293 294 295 295 295 296 296 295 294 293 293 293 294 297 299 299 302 305 306 306 303 300 299 299 300 303 305 306 305 306 307 307 306
264 265 266 267 268 270 270 271 271 271 270 269 269 268 271 273 271 269 268 269 270 270 269 267 266 267 268 269 270 271 272 272 273 273 274 276 276 276 278 279 279 279 280 280 280 280 281 281 281 282 285 287 288 290 292 294 295 294 295 296 297 296 296 296 296 297 296 296 298 299 298 303 307 307 306 302 299 299 298 300 303 304 304 304 306 308 307 306
265 265 265 266 267 268 269 271 271 271 271 271 270 272 275 274 271 269 269 269 270 270 269 268 268 269 269 269 270 271 271 271 272 273 274 274 274 276 278 278 279 280 281 282 282 282 282 281 280 281 283 285 288 290 293 294 294 293 296 298 297 296 296 296 297 298 298 297 299 299 299 303 307 305 302 299 297 297 298 300 303 304 303 304 306 307 306 306
267 266 265 266 267 267 268 269 269 270 271 271 271 275 277 275 273 271 269 268 268 269 269 269 270 270 270 270 270 271 272 273 274 274 274 274 275 277 279 279 280 281 282 283 283 283 283 282 281 281 283 286 288 291 293 293 292 294 297 297 296 296 296 296 297 298 298 297 298 300 300 304 307 304 301 297 296 297 298 300 302 303 302 304 306 307 306 305
268 267 267 267 267 267 266 267 268 269 269 270 273 276 275 275 275 273 270 269 268 268 269 270 271 270 270 270 270 271 272 273 274 275 275 276 277 279 280 280 281 281 281 281 282 283 283 282 281 283 285 286 289 292 292 291 292 295 297 295 295 295 295 295 297 298 297 296 297 299 300 304 307 305 302 298 297 299 299 300 302 302 302 305 307 306 305 305
268 269 269 268 267 267 266 267 267 267 269 272 274 274 272 273 274 274 273 272 271 270 271 271 271 270 270 271 271 271 272 273 273 274 274 276 278 279 279 279 279 279 279 279 280 281 281 282 282 283 285 288 290 291 290 292 293 295 295 294 294 295 295 296 297 298 298 297 298 299 300 304 307 304 300 299 300 301 299 300 302 301 303 306 306 305 305 305
268 268 269 268 268 268 267 266 266 267 270 273 273 273 272 271 270 272 274 274 274 274 273 272 272 272 272 272 271 271 271 271 272 273 274 276 277 278 277 277 276 276 276 277 278 279 280 281 282 284 286 288 290 290 291 293 294 294 293 293 293 294 295 295 296 297 297 297 300 300 299 305 309 302 298 300 302 301 300 301 302 302 305 306 305 305 305 306
268 268 268 268 267 268 267 267 267 269 271 273 274 275 274 270 268 269 271 273 274 275 275 275 274 274 273 272 272 271 271 271 272 273 275 276 277 277 276 275 275 275 275 276 277 278 279 280 283 286 287 288 289 290 291 292 292 292 291 292 294 294 295 295 294 296 296 297 301 300 299 307 311 301 299 303 303 301 300 302 303 305 306 305 304 306 306 306
267 268 268 267 267 267 268 268 269 271 273 275 275 273 270 268 267 267 268 270 272 273 275 275 275 275 274 274 274 273 273 273 274 275 277 277 277 276 274 274 274 274 275 276 278 279 280 282 285 287 287 288 289 290 290 291 290 289 290 292 294 294 295 294 294 296 295 297 301 297 297 308 309 300 301 305 303 301 301 302 305 306 306 305 305 306 306 306
266 267 267 266 267 267 268 270 271 273 274 273 271 269 269 270 270 269 269 270 270 271 272 272 273 275 275 276 275 275 276 277 278 279 279 277 276 275 274 275 275 276 277 278 279 280 281 284 286 287 288 288 289 289 290 289 288 288 290 292 292 293 293 293 294 294 295 299 299 294 297 308 306 301 304 306 303 301 301 304 307 306 305 305 305 305 305 306
264 265 265 265 266 266 267 270 271 272 271 270 269 270 270 270 270 271 270 270 269 269 270 271 272 274 275 275 275 276 278 279 280 279 278 277 277 276 277 277 277 278 278 279 280 281 283 285 286 287 288 288 288 289 288 287 287 288 290 291 291 292 293 293 293 293 296 298 295 293 300 306 303 302 306 305 301 300 303 306 306 305 305 305 304 305 306 306
262 263 264 265 265 266 267 269 270 269 269 269 269 268 268 269 269 269 268 268 269 270 272 273 273 273 273 274 275 276 277 278 278 276 276 277 278 278 279 279 278 278 278 279 281 282 283 284 286 287 287 287 287 288 287 286 287 289 290 290 291 292 293 293 293 294 297 295 292 296 304 303 302 306 306 302 300 301 306 307 305 305 305 304 304 305 306 307
260 261 263 264 265 266 267 268 268 268 269 269 268 267 267 267 267 267 267 269 272 274 274 272 271 271 271 273 274 274 274 274 274 274 275 277 278 279 278 277 277 277 278 279 281 282 282 283 285 287 287 287 287 287 287 286 287 288 289 289 291 293 293 293 294 295 295 292 294 302 303 300 304 308 303 300 301 303 306 306 304 305 304 304 305 306 307 308
261 261 262 263 264 265 265 266 267 268 268 267 267 267 267 267 267 268 270 272 273 273 272 271 271 272 272 272 271 270 270 270 271 272 275 276 277 276 275 274 275 276 278 280 280 281 282 284 286 288 287 287 288 288 288 287 287 288 289 290 292 293 293 294 293 293 293 294 298 302 300 300 307 307 301 301 303 304 305 305 304 305 304 305 306 306 307 308
264 263 263 263 264 264 265 265 265 266 265 265 266 267 267 268 269 270 271 271 271 271 272 272 272 273 273 271 269 269 268 269 270 273 275 275 274 273 272 272 274 276 278 279 280 282 283 284 287 287 286 286 287 288 288 287 287 288 289 291 292 293 293 292 291 292 294 296 299 299 298 301 306 304 300 301 303 303 304 305 305 305 306 306 306 306 306 307
265 265 265 265 265 265 264 263 262 263 264 265 265 266 266 268 269 269 269 269 269 270 271 271 272 273 273 272 271 270 270 272 274 275 274 273 272 271 271 272 274 276 277 279 280 282 283 284 285 285 284 285 286 287 286 286 287 288 288 291 294 293 291 289 290 293 294 294 296 297 297 300 303 301 300 300 302 303 304 305 305 306 306 306 305 305 306 306
265 266 266 266 265 265 265 263 262 262 263 264 264 265 266 267 267 267 266 266 266 267 268 271 273 273 272 271 271 272 274 277 277 274 272 271 271 271 272 274 275 276 277 279 281 282 282 284 284 284 284 285 286 286 286 287 288 287 289 293 293 290 289 290 292 293 292 293 295 296 298 301 302 300 299 300 302 303 304 305 306 306 306 306 306 306 306 306
265 265 265 265 265 266 266 265 264 263 263 263 265 266 267 266 265 264 264 264 265 266 268 269 270 270 269 270 271 275 278 277 274 272 271 271 271 272 274 275 276 277 278 280 281 282 283 284 284 284 284 285 286 286 287 288 287 287 292 294 290 288 290 292 292 291 292 293 295 297 300 301 300 298 299 301 302 303 303 304 305 306 306 306 306 306 306 306
266 265 265 265 265 266 266 266 266 265 265 265 265 265 265 264 264 264 264 264 265 266 266 266 265 266 267 270 273 277 277 274 272 272 272 271 272 272 273 275 277 278 279 280 281 282 283 284 284 284 285 286 287 287 287 286 286 289 294 291 288 290 293 292 290 291 293 294 296 299 300 300 299 298 299 300 301 301 302 303 305 306 306 306 306 306 306 306
Height
10851 10851 10851 10851 10851 10851 10850 10850 10849 10849 10849 10849 10849 10849 10849 10850 10850 10851 10851 10851 10851 10851 10851 10851 10850 10850 10849 10849 10848 10848 10847 10847 10846 10845 10844 10842 10841 10839 10838 10837 10836 10835 10834 10833 10832 10830 10828 10826 10823 10820 10818 10817 10816 10815 10814 10813 10811 10810 10808 10806 10804 10802 10800 10798 10796 10794 10792 10791 10790 10788 10786 10784 10783 10783 10783 10782 10782 10782 10782 10782 10781 10779 10778 10776 10775 10773 10772 10770
10848 10848 10848 10849 10849 10848 10848 10848 10847 10847 10847 10847 10847 10847 10847 10847 10847 10848 10848 10849 10849 10849 10848 10848 10848 10847 10847 10847 10846 10845 10845 10845 10844 10843 10842 10841 10840 10838 10837 10835 10834 10833 10832 10831 10830 10828 10827 10825 10823 10821 10817 10815 10814 10813 10812 10811 10810 10809 10807 10805 10804 10802 10800 10798 10796 10794 10791 10790 10789 10788 10786 10783 10781 10781 10781 10780 10780 10780 10780 10779 10778 10777 10775 10774 10772 10771 10769 10767
10845 10846 10846 10846 10846 10846 10846 10845 10845 10845 10844 10844 10844 10844 10844 10844 10844 10845 10845 10846 10846 10846 10846 10845 10845 10845 10845 10844 10844 10843 10843 10843 10842 10841 10841 10840 10838 10837 10836 10834 10832 10831 10830 10829 10828 10827 10825 10824 10822 10821 10818 10815 10813 10811 10810 10809 10808 10807 10805 10804 10802 10802 10800 10798 10796 10793 10791 10789 10788 10787 10786 10783 10780 10779 10779 10778 10777 10777 10777 10776 10774 10773 10772 10771 10770 10768 10766 10765
10842 10842 10842 10842 10842 10842 10843 10843 10842 10842 10842 10842 10842 10842 10841 10841 10841 10842 10842 10843 10843 10843 10843 10843 10842 10842 10842 10842 10842 10841 10841 10840 10840 10839 10839 10838 10837 10836 10834 10833 10831 10830 10828 10827 10826 10825 10823 10822 10820 10819 10817 10815 10813 10811 10809 10808 10806 10805 10803 10802 10801 10800 10799 10797 10795 10793 10790 10788 10786 10786 10785 10782 10780 10778 10777 10776 10775 10774 10773 10772 10771 10770 10768 10768 10766 10765 10763 10762
10839 10839 10839 10839 10839 10839 10839 10839 10839 10839 10839 10839 10839 10839 10839 10838 10839 10839 10839 10839 10840 10840 10840 10840 10840 10840 10840 10839 10839 10839 10839 10838 10838 10837 10837 10836 10835 10834 10833 10831 10830 10828 10827 10825 10824 10823 10821 10819 10818 10816 10815 10814 10812 10810 10809 10807 10806 10804 10802 10800 10799 10798 10796 10795 10794 10791 10789 10787 10785 10784 10783 10782 10779 10776 10775 10774 10773 10771 10770 10769 10768 10767 10766 10764 10763 10762 10760 10759
10835 10835 10836 10836 10836 10836 10836 10836 10836 10836 10837 10837 10836 10836 10836 10836 10835 10836 10836 10836 10836 10837 10837 10837 10837 10837 10837 10837 10837 10836 10837 10836 10835 10835 10835 10834 10833 10832 10831 10829 10828 10826 10825 10824 10822 10820 10819 10817 10815 10814 10813 10811 10810 10809 10808 10806 10805 10803 10801 10799 10797 10796 10794 10793 10792 10790 10788 10786 10783 10782 10781 10780 10778 10776 10774 10772 10771 10769 10768 10767 10766 10764 10763 10762 10760 10759 10758 10756
10832 10832 10833 10833 10833 10833 10833 10833 10833 10833 10833 10834 10834 10833 10833 10833 10832 10832 10833 10833 10833 10833 10834 10834 10834 10835 10834 10834 10834 10834 10834 10834 10833 10833 10832 10832 10831 10830 10829 10828 10826 10825 10823 10822 10821 10819 10818 10816 10814 10812 10811 10809 10807 10806 10805 10804 10803 10802 10800 10798 10796 10794 10793 10791 10790 10788 10786 10784 10782 10780 10779 10778 10777 10775 10773 10771 10769 10768 10766 10764 10763 10762 10760 10759 10757 10756 10755 10754
10830 10830 10830 10830 10830 10830 10830 10830 10830 10830 10830 10830 10831 10831 10830 10830 10829 10829 10830 10830 10830 10830 10831 10831 10831 10832 10832 10831 10831 10832 10831 10831 10831 10830 10830 10829 10829 10828 10827 10826 10824 10823 10821 10819 10818 10817 10816 10815 10813 10811 10809 10807 10804 10802 10801 10800 10799 10799 10798 10797 10795 10793 10791 10789 10788 10786 10784 10782 10780 10778 10776 10775 10775 10773 10771 10769 10767 10765 10763 10762 10760 10759 10757 10756 10755 10754 10753 10751
10827 10827 10827 10828 10828 10828 10828 10827 10827 10827 10827 10827 10827 10828 10828 10827 10827 10826 10826 10827 10827 10827 10827 10828 10828 10828 10828 10828 10828 10828 10829 10829 10828 10828 10827 10826 10826 10826 10825 10824 10822 10821 10819 10817 10815 10814 10814 10812 10811 10809 10807 10805 10802 10799 10798 10797 10796 10795 10794 10794 10793 10791 10789 10787 10786 10784 10782 10780 10778 10776 10773 10773 10772 10771 10768 10766 10764 10762 10760 10759 10757 10756 10755 10753 10752 10751 10750 10748
10824 10824 10825 10825 10826 10826 10825 10825 10825 10824 10824 10824 10824 10824 10825 10825 10824 10824 10823 10824 10824 10824 10824 10824 10825 10825 10825 10825 10825 10825 10825 10825 10825 10825 10824 10824 10823 10823 10822 10821 10820 10818 10817 10815 10813 10811 10810 10809 10808 10807 10805 10803 10800 10797 10795 10794 10792 10791 10791 10790 10789 10788 10787 10785 10784 10782 10780 10778 10776 10773 10770 10770 10770 10768 10765 10762 10760 10758 10756 10755 10754 10752 10751 10750 10749 10748 10746 10744
10821 10822 10822 10822 10823 10823 10823 10823 10822 10822 10821 10821 10821 10821 10822 10821 10821 10821 10820 10821 10821 10821 10821 10821 10821 10822 10822 10822 10822 10822 10822 10822 10822 10821 10821 10820 10820 10819 10819 10818 10817 10816 10815 10813 10811 10809 10807 10806 10805 10805 10803 10801 10798 10796 10793 10791 10790 10788 10787 10786 10786 10785 10783 10782 10781 10779 10778 10776 10774 10770 10767 10767 10766 10764 10762 10759 10757 10755 10753 10751 10749 10748 10747 10745 10745 10743 10742 10741
10818 10818 10818 10818 10819 10819 10819 10819 10819 10819 10818 10818 10818 10818 10818 10818 10818 10818 10817 10817 10818 10818 10818 10818 10818 10818 10818 10818 10819 10819 10818 10818 10818 10818 10817 10817 10817 10816 10815 10815 10814 10813 10812 10811 10809 10807 10804 10803 10802 10802 10800 10798 10796 10794 10791 10789 10787 10785 10784 10783 10782 10781 10780 10779 10778 10776 10775 10773 10771 10768 10763 10763 10764 10760 10758 10756 10754 10752 10750 10748 10746 10744 10743 10741 10740 10739 10738 10737
10814 10814 10814 10814 10815 10815 10815 10815 10815 10815 10815 10814 10814 10814 10814 10815 10815 10815 10814 10814 10814 10814 10815 10815 10815 10814 10814 10814 10815 10815 10815 10815 10815 10814 10814 10814 10813 10813 10812 10811 10810 10810 10809 10808 10806 10805 10802 10799 10798 10798 10797 10795 10794 10792 10790 10787 10785 10783 10781 10780 10778 10778 10777 10776 10774 10773 10772 10770 10769 10766 10760 10758 10760 10758 10755 10753 10751 10749 10746 10744 10743 10741 10739 10737 10736 10735 10734 10732
10810 10810 10810 10810 10810 10810 10810 10810 10810 10810 10810 10810 10810 10811 10810 10810 10812 10811 10811 10811 10811 10811 10811 10812 10811 10811 10811 10810 10811 10812 10811 10811 10811 10810 10810 10810 10809 10809 10808 10807 10806 10806 10805 10804 10803 10802 10800 10797 10794 10794 10793 10792 10791 10789 10787 10785 10783 10781 10779 10777 10775 10774 10773 10772 10771 10769 10768 10766 10765 10764 10758 10753 10754 10753 10751 10749 10746 10744 10741 10740 10738 10736 10734 10732 10731 10730 10729 10728
10805 10805 10805 10805 10805 10805 10805 10805 10805 10805 10806 10805 10806 10806 10806 10806 10807 10808 10807 10807 10807 10808 10808 10808 10808 10808 10807 10806 10807 10808 10807 10807 10807 10806 10806 10806 10805 10804 10804 10803 10802 10801 10801 10800 10799 10798 10797 10794 10791 10790 10789 10788 10787 10786 10784 10782 10780 10778 10776 10775 10772 10770 10769 10769 10768 10766 10764 10762 10761 10761 10757 10751 10749 10748 10747 10745 10742 10739 10737 10736 10735 10732 10730 10728 10726 10726 10725 10723
10801 10800 10801 10801 10801 10801 10800 10800 10800 10800 10801 10801 10801 10802 10802 10802 10803 10803 10803 10803 10803 10804 10804 10804 10804 10805 10803 10802 10803 10803 10803 10803 10802 10802 10802 10802 10801 10800 10799 10799 10798 10797 10796 10795 10795 10794 10793 10791 10788 10786 10785 10784 10783 10782 10780 10779 10777 10776 10774 10772 10770 10768 10766 10764 10764 10763 10760 10757 10756 10757 10754 10748 10746 10745 10743 10741 10738 10735 10733 10732 10731 10729 10727 10724 10722 10721 10720 10718
10796 10796 10796 10796 10796 10796 10796 10796 10795 10795 10796 10796 10796 10797 10797 10797 10798 10799 10799 10799 10799 10799 10800 10799 10799 10801 10799 10798 10799 10798 10799 10798 10798 10798 10798 10797 10797 10796 10795 10794 10793 10793 10791 10791 10790 10789 10788 10787 10785 10782 10781 10780 10779 10778 10776 10775 10773 10772 10771 10769 10767 10765 10764 10762 10761 10760 10757 10754 10751 10753 10751 10745 10741 10741 10740 10737 10734 10730 10728 10727 10726 10724 10722 10720 10718 10716 10715 10713
10792 10792 10792 10792 10792 10791 10791 10791 10791 10790 10790 10791 10791 10791 10792 10793 10793 10793 10794 10794 10794 10794 10795 10794 10795 10796 10794 10794 10794 10793 10794 10793 10793 10793 10793 10793 10792 10791 10790 10789 10788 10788 10786 10786 10785 10784 10783 10783 10781 10778 10777 10776 10775 10774 10772 10770 10769 10768 10767 10765 10763 10761 10760 10759 10759 10757 10755 10752 10748 10748 10749 10743 10738 10736 10736 10733 10730 10726 10724 10722 10721 10719 10717 10715 10713 10712 10710 10708
10789 10788 10788 10788 10787 10787 10787 10786 10786 10786 10785 10786 10786 10786 10787 10788 10788 10788 10789 10789 10790 10789 10790 10790 10790 10791 10790 10789 10789 10788 10788 10788 10788 10788 10788 10788 10787 10786 10785 10784 10784 10782 10781 10781 10780 10779 10778 10777 10776 10774 10773 10772 10771 10770 10768 10767 10765 10763 10762 10761 10759 10757 10754 10753 10755 10754 10753 10750 10745 10744 10746 10741 10735 10732 10730 10730 10726 10722 10720 10719 10717 10715 10713 10711 10709 10707 10705 10702
10785 10784 10784 10784 10783 10783 10782 10782 10782 10781 10780 10780 10781 10781 10782 10782 10783 10784 10784 10784 10784 10784 10785 10785 10785 10785 10785 10784 10784 10783 10782 10782 10782 10782 10782 10783 10782 10781 10780 10779 10779 10777 10776 10776 10775 10774 10772 10772 10771 10769 10768 10767 10767 10766 10764 10762 10760 10759 10758 10756 10755 10754 10751 10748 10749 10749 10749 10748 10743 10740 10743 10739 10732 10728 10725 10724 10722 10717 10716 10716 10714 10711 10709 10707 10704 10702 10700 10697
10780 10779 10780 10779 10779 10779 10778 10778 10777 10777 10776 10775 10776 10777 10777 10778 10778 10779 10780 10779 10779 10780 10779 10780 10781 10780 10780 10779 10778 10778 10777 10776 10776 10776 10777 10777 10776 10776 10774 10774 10774 10772 10771 10770 10769 10768 10767 10767 10765 10764 10763 10762 10762 10761 10759 10758 10756 10754 10753 10752 10750 10749 10749 10745 10744 10745 10744 10745 10742 10738 10740 10737 10730 10724 10718 10718 10716 10711 10710 10711 10708 10706 10704 10701 10699 10697 10694 10691
10774 10775 10775 10775 10775 10774 10774 10773 10773 10773 10772 10771 10771 10772 10772 10773 10773 10774 10776 10775 10774 10775 10775 10775 10775 10775 10775 10774 10772 10772 10772 10770 10771 10771 10770 10771 10771 10770 10769 10768 10768 10767 10766 10765 10764 10763 10761 10761 10760 10758 10757 10756 10756 10755 10755 10753 10751 10749 10748 10748 10745 10743 10745 10742 10739 10740 10739 10740 10739 10736 10738 10736 10728 10720 10712 10710 10709 10704 10704 10704 10701 10699 10697 10695 10693 10691 10688 10684
10769 10770 10770 10770 10770 10770 10769 10769 10768 10768 10767 10766 10765 10766 10767 10768 10769 10769 10771 10772 10770 10769 10770 10770 10770 10771 10770 10768 10767 10767 10766 10765 10766 10765 10764 10765 10764 10764 10764 10762 10762 10762 10761 10760 10759 10757 10755 10755 10755 10752 10751 10750 10750 10749 10749 10748 10745 10743 10743 10743 10741 10738 10739 10739 10737 10736 10734 10734 10734 10733 10736 10735 10727 10718 10708 10703 10700 10696 10698 10697 10694 10693 10691 10689 10686 10684 10681 10677
10764 10765 10765 10765 10764 10765 10765 10764 10763 10763 10762 10761 10761 10761 10762 10763 10764 10764 10765 10768 10768 10765 10763 10765 10766 10766 10765 10763 10761 10761 10761 10760 10760 10759 10759 10760 10758 10758 10758 10756 10756 10755 10755 10755 10754 10752 10749 10748 10749 10746 10744 10744 10743 10742 10743 10743 10740 10737 10736 10737 10736 10733 10732 10734 10734 10734 10731 10728 10726 10727 10734 10736 10728 10717 10705 10699 10693 10689 10691 10690 10687 10687 10685 10684 10681 10677 10674 10670
10759 10760 10760 10759 10759 10760 10760 10759 10758 10757 10757 10756 10756 10757 10757 10758 10759 10759 10760 10763 10766 10762 10758 10760 10761 10759 10758 10756 10755 10755 10755 10755 10755 10754 10754 10754 10753 10753 10752 10751 10751 10749 10749 10749 10749 10746 10742 10742 10743 10740 10738 10737 10736 10736 10736 10737 10735 10731 10728 10729 10731 10728 10727 10727 10727 10729 10729 10727 10721 10716 10726 10737 10731 10718 10705 10696 10690 10686 10684 10682 10679 10679 10679 10677 10675 10671 10668 10664
10754 10755 10755 10754 10754 10754 10755 10755 10752 10752 10752 10751 10752 10752 10752 10753 10753 10755 10754 10758 10764 10760 10754 10757 10756 10752 10751 10749 10748 10750 10750 10750 10750 10749 10749 10748 10748 10747 10746 10745 10744 10744 10743 10742 10743 10740 10735 10735 10734 10733 10732 10730 10729 10729 10729 10729 10730 10727 10722 10721 10723 10722 10722 10721 10720 10722 10723 10725 10720 10705 10713 10733 10731 10718 10704 10690 10686 10685 10677 10673 10672 10672 10672 10671 10668 10664 10660 10657
10748 10749 10749 10749 10748 10748 10750 10749 10747 10747 10746 10746 10747 10748 10748 10748 10749 10750 10749 10753 10762 10758 10751 10751 10749 10746 10745 10742 10741 10744 10744 10744 10744 10744 10743 10742 10742 10742 10741 10739 10737 10737 10736 10736 10738 10733 10729 10730 10727 10725 10725 10723 10722 10722 10722 10722 10723 10722 10718 10715 10715 10714 10715 10714 10713 10715 10714 10721 10719 10698 10700 10723 10727 10717 10700 10684 10682 10680 10669 10663 10664 10665 10665 10664 10661 10657 10653 10649
10742 10743 10743 10743 10742 10742 10744 10743 10742 10741 10740 10741 10742 10742 10743 10744 10744 10745 10744 10749 10758 10757 10748 10743 10740 10740 10739 10736 10737 10737 10738 10738 10737 10738 10737 10735 10735 10735 10734 10733 10730 10730 10729 10729 10731 10726 10723 10724 10721 10719 10719 10717 10716 10716 10715 10715 10715 10715 10712 10710 10708 10707 10707 10706 10706 10707 10706 10714 10714 10695 10692 10709 10718 10712 10693 10679 10679 10675 10661 10655 10656 10658 10658 10657 10654 10650 10646 10642
10735 10736 10737 10737 10736 10736 10736 10737 10736 10734 10734 10736 10736 10736 10738 10738 10740 10741 10741 10747 10754 10751 10743 10736 10733 10733 10731 10730 10731 10731 10732 10732 10731 10731 10730 10728 10729 10728 10727 10725 10722 10723 10722 10722 10724 10720 10718 10719 10716 10713 10712 10711 10710 10709 10709 10708 10707 10707 10705 10703 10701 10700 10700 10698 10699 10698 10698 10707 10706 10693 10690 10696 10707 10707 10686 10673 10674 10667 10654 10648 10649 10651 10651 10650 10646 10643 10639 10635
10728 10729 10729 10730 10730 10729 10728 10730 10729 10728 10728 10729 10730 10731 10731 10733 10736 10736 10740 10746 10746 10742 10737 10732 10728 10726 10724 10724 10725 10726 10727 10726 10725 10725 10724 10722 10722 10722 10720 10717 10715 10715 10715 10715 10715 10713 10712 10712 10710 10707 10705 10705 10704 10703 10702 10701 10700 10699 10697 10695 10692 10692 10692 10691 10693 10689 10690 10700 10697 10689 10689 10688 10695 10697 10681 10671 10667 10656 10645 10642 10642 10642 10643 10642 10639 10635 10631 10627
10721 10721 10722 10723 10723 10721 10721 10722 10721 10720 10721 10722 10723 10724 10726 10729 10731 10734 10741 10741 10734 10733 10732 10726 10722 10719 10718 10719 10720 10720 10720 10719 10719 10717 10717 10717 10716 10715 10713 10710 10707 10706 10708 10708 10706 10706 10706 10705 10703 10700 10698 10698 10698 10697 10695 10694 10692 10690 10689 10686 10684 10684 10683 10684 10686 10681 10682 10690 10689 10685 10685 10683 10686 10684 10673 10668 10661 10645 10637 10637 10636 10636 10636 10635 10631 10628 10624 10620
10714 10714 10715 10716 10715 10714 10713 10714 10713 10713 10714 10714 10715 10717 10720 10723 10729 10735 10737 10730 10724 10727 10724 10717 10716 10715 10714 10715 10714 10714 10713 10713 10713 10710 10710 10710 10710 10709 10706 10702 10698 10696 10701 10701 10697 10698 10701 10699 10696 10693 10691 10690 10690 10689 10688 10687 10685 10683 10681 10677 10675 10674 10673 10677 10678 10674 10676 10681 10679 10679 10679 10679 10680 10675 10667 10663 10652 10637 10630 10629 10630 10631 10630 10628 10624 10622 10618 10613
10707 10707 10708 10708 10708 10706 10705 10705 10705 10705 10705 10705 10707 10711 10713 10719 10730 10733 10727 10719 10717 10718 10715 10712 10712 10711 10709 10710 10709 10707 10707 10707 10705 10703 10704 10704 10704 10703 10699 10695 10689 10685 10690 10692 10690 10691 10694 10695 10690 10684 10684 10685 10683 10681 10680 10680 10677 10676 10674 10669 10667 10664 10660 10666 10670 10667 10671 10675 10673 10671 10670 10673 10675 10669 10662 10656 10642 10630 10624 10621 10622 10624 10623 10619 10616 10614 10611 10605
10700 10700 10701 10701 10699 10698 10696 10696 10696 10696 10696 10697 10699 10702 10708 10718 10728 10725 10717 10712 10707 10708 10709 10707 10706 10705 10705 10706 10704 10702 10700 10698 10698 10696 10696 10697 10698 10696 10692 10687 10681 10676 10676 10678 10682 10684 10688 10693 10687 10677 10678 10679 10676 10675 10672 10671 10670 10668 10665 10661 10660 10655 10647 10650 10657 10657 10660 10667 10671 10664 10659 10664 10667 10663 10656 10647 10635 10624 10616 10615 10616 10616 10614 10609 10608 10606 10601 10596
10692 10693 10693 10693 10691 10690 10688 10687 10688 10687 10686 10688 10689 10695 10707 10717 10718 10713 10709 10705 10699 10700 10701 10698 10698 10699 10701 10701 10699 10697 10692 10690 10692 10690 10690 10691 10690 10689 10688 10681 10673 10668 10666 10664 10668 10673 10679 10686 10682 10674 10674 10673 10670 10669 10665 10663 10661 10658 10657 10655 10651 10646 10637 10634 10640 10645 10645 10651 10663 10659 10651 10657 10659 10655 10649 10636 10627 10618 10609 10609 10610 10608 10604 10599 10599 10597 10592 10586
10684 10685 10686 10686 10683 10680 10679 10679 10679 10677 10678 10679 10681 10693 10708 10710 10706 10703 10703 10698 10692 10690 10688 10688 10692 10694 10695 10696 10693 10690 10685 10683 10685 10685 10684 10684 10683 10685 10684 10676 10668 10662 10657 10652 10653 10659 10666 10674 10675 10669 10670 10670 10665 10663 10661 10657 10650 10647 10651 10649 10642 10636 10630 10624 10625 10633 10631 10632 10648 10650 10645 10651 10653 10649 10644 10630 10620 10613 10604 10603 10604 10600 10596 10592 10591 10589 10582 10576
10674 10675 10678 10679 10673 10669 10671 10671 10668 10668 10669 10669 10676 10694 10703 10700 10697 10696 10693 10689 10683 10680 10678 10681 10686 10686 10686 10688 10687 10683 10677 10677 10680 10678 10676 10676 10678 10683 10679 10669 10664 10658 10651 10643 10642 10645 10649 10658 10665 10663 10663 10664 10660 10657 10656 10650 10641 10640 10644 10641 10633 10628 10623 10616 10614 10621 10620 10616 10631 10640 10637 10644 10644 10638 10635 10624 10614 10609 10601 10597 10598 10593 10588 10585 10584 10579 10572 10567
10663 10666 10672 10672 10662 10656 10660 10660 10658 10660 10659 10661 10677 10692 10693 10690 10690 10686 10681 10677 10674 10671 10672 10675 10677 10676 10678 10680 10680 10676 10670 10670 10672 10669 10668 10668 10672 10679 10674 10664 10659 10653 10644 10635 10632 10635 10634 10638 10651 10657 10655 10655 10656 10653 10648 10642 10636 10636 10637 10631 10624 10619 10614 10610 10607 10610 10608 10601 10613 10627 10631 10639 10637 10624 10619 10613 10607 10602 10594 10590 10590 10584 10580 10578 10575 10569 10561 10557
10653 10657 10665 10665 10651 10642 10648 10650 10648 10648 10649 10660 10677 10683 10681 10682 10681 10676 10671 10667 10664 10664 10665 10668 10666 10665 10670 10672 10670 10667 10663 10663 10664 10659 10659 10662 10666 10671 10666 10657 10651 10644 10636 10628 10625 10626 10623 10622 10637 10648 10648 10647 10649 10644 10638 10634 10630 10629 10627 10622 10618 10611 10604 10603 10601 10600 10596 10589 10596 10607 10617 10635 10633 10613 10605 10602 10600 10594 10583 10582 10581 10574 10572 10570 10564 10557 10551 10547
10644 10647 10656 10657 10640 10629 10634 10636 10635 10639 10645 10658 10669 10670 10672 10674 10671 10668 10662 10657 10655 10655 10656 10659 10657 10656 10661 10661 10658 10658 10655 10654 10655 10651 10652 10657 10660 10662 10657 10648 10641 10634 10628 10622 10618 10618 10613 10611 10623 10638 10642 10642 10641 10634 10629 10627 10622 10618 10616 10612 10610 10604 10597 10595 10594 10594 10588 10581 10585 10584 10594 10626 10628 10603 10594 10595 10593 10584 10573 10572 10572 10565 10564 10559 10551 10546 10541 10536
10632 10636 10647 10647 10630 10619 10619 10621 10628 10635 10639 10651 10660 10660 10661 10661 10660 10659 10654 10648 10646 10646 10646 10649 10649 10649 10650 10649 10648 10647 10643 10643 10646 10645 10647 10652 10651 10649 10646 10638 10630 10624 10618 10614 10611 10610 10604 10602 10613 10628 10633 10634 10632 10627 10623 10619 10613 10608 10604 10603 10601 10595 10590 10583 10582 10589 10584 10577 10580 10565 10569 10610 10616 10587 10584 10588 10582 10572 10562 10561 10561 10556 10553 10546 10538 10535 10530 10525
10620 10626 10635 10631 10619 10612 10607 10609 10623 10629 10632 10645 10650 10646 10645 10647 10650 10651 10648 10642 10639 10638 10637 10637 10639 10639 10639 10639 10637 10634 10632 10634 10638 10639 10640 10643 10642 10637 10632 10626 10620 10614 10609 10605 10603 10600 10594 10595 10607 10618 10622 10623 10623 10620 10616 10611 10605 10598 10596 10598 10594 10588 10583 10573 10569 10576 10575 10576 10578 10553 10553 10596 10599 10571 10573 10579 10569 10558 10551 10550 10551 10547 10541 10533 10527 10525 10519 10514
10611 10615 10617 10614 10610 10605 10597 10604 10619 10622 10626 10634 10632 10629 10632 10635 10640 10642 10641 10637 10632 10630 10626 10626 10630 10629 10628 10630 10626 10624 10624 10623 10629 10633 10630 10630 10631 10626 10618 10614 10610 10605 10600 10597 10594 10589 10586 10590 10598 10606 10611 10613 10612 10611 10608 10601 10592 10588 10591 10592 10586 10581 10576 10568 10563 10562 10563 10574 10567 10538 10547 10586 10581 10558 10564 10567 10555 10545 10541 10542 10543 10536 10529 10523 10516 10512 10508 10503
10600 10599 10601 10602 10599 10595 10594 10604 10613 10611 10614 10618 10615 10618 10622 10622 10628 10633 10632 10628 10623 10620 10618 10619 10623 10621 10619 10618 10615 10616 10617 10614 10619 10623 10616 10614 10619 10616 10608 10602 10599 10595 10590 10587 10584 10580 10580 10584 10588 10593 10599 10602 10603 10602 10598 10589 10581 10581 10587 10584 10576 10574 10570 10563 10557 10551 10556 10566 10548 10528 10547 10571 10562 10549 10552 10550 10539 10533 10534 10534 10531 10524 10517 10511 10505 10500 10496 10490
10584 10584 10588 10591 10587 10586 10592 10601 10601 10596 10601 10604 10602 10607 10609 10609 10618 10622 10618 10615 10613 10613 10613 10614 10614 10611 10608 10607 10607 10609 10608 10605 10604 10605 10604 10605 10606 10607 10600 10591 10587 10583 10579 10577 10575 10572 10572 10576 10580 10582 10585 10590 10595 10593 10585 10577 10572 10574 10578 10574 10568 10567 10564 10556 10549 10544 10548 10545 10532 10535 10545 10546 10548 10545 10535 10529 10523 10521 10526 10523 10515 10511 10505 10497 10493 10488 10482 10476
10567 10571 10578 10580 10576 10576 10584 10591 10587 10584 10590 10590 10587 10593 10596 10599 10606 10607 10604 10606 10610 10607 10604 10604 10603 10600 10599 10601 10599 10598 10596 10593 10588 10588 10595 10598 10596 10596 10589 10579 10574 10571 10570 10570 10567 10564 10562 10566 10574 10575 10570 10574 10582 10582 10572 10564 10564 10566 10566 10566 10562 10560 10557 10549 10541 10539 10535 10520 10523 10544 10536 10521 10540 10543 10515 10507 10510 10510 10514 10509 10500 10498 10490 10483 10481 10474 10468 10463
10549 10561 10571 10569 10561 10561 10572 10578 10575 10574 10576 10571 10569 10577 10585 10589 10594 10597 10597 10600 10601 10594 10588 10592 10593 10592 10594 10593 10585 10580 10582 10580 10576 10579 10588 10589 10585 10581 10573 10567 10563 10562 10563 10561 10557 10555 10552 10557 10569 10565 10557 10560 10567 10568 10560 10551 10552 10555 10555 10557 10555 10551 10550 10542 10532 10530 10522 10505 10516 10539 10523 10507 10531 10531 10499 10490 10497 10498 10499 10493 10486 10483 10475 10471 10468 10460 10455 10450
10532 10545 10554 10552 10545 10548 10561 10568 10563 10557 10553 10553 10556 10565 10573 10580 10587 10591 10590 10586 10582 10579 10577 10581 10585 10585 10584 10577 10566 10565 10569 10568 10569 10577 10579 10574 10569 10562 10554 10555 10557 10556 10556 10550 10547 10547 10541 10548 10561 10552 10543 10550 10556 10555 10547 10537 10538 10543 10547 10549 10544 10541 10541 10530 10520 10521 10513 10499 10508 10521 10512 10509 10521 10511 10488 10482 10483 10483 10484 10478 10472 10469 10463 10459 10454 10446 10443 10437
10518 10525 10533 10533 10530 10534 10543 10549 10545 10537 10538 10543 10546 10552 10563 10573 10579 10580 10575 10568 10567 10569 10565 10566 10576 10578 10569 10559 10551 10550 10558 10564 10568 10572 10565 10555 10550 10543 10538 10545 10551 10549 10546 10541 10541 10539 10531 10537 10549 10540 10531 10541 10548 10544 10533 10526 10527 10529 10537 10546 10537 10526 10523 10516 10513 10516 10505 10494 10500 10502 10499 10510 10512 10492 10478 10478 10472 10468 10469 10464 10458 10455 10451 10446 10440 10434 10430 10423
10508 10511 10514 10511 10509 10514 10521 10526 10527 10527 10531 10529 10527 10542 10558 10562 10566 10565 10556 10551 10554 10557 10554 10556 10568 10567 10551 10540 10537 10541 10558 10566 10558 10553 10547 10535 10531 10528 10528 10538 10544 10540 10537 10535 10534 10529 10522 10528 10536 10526 10517 10530 10540 10530 10518 10518 10516 10512 10529 10546 10529 10504 10504 10508 10507 10505 10494 10487 10491 10488 10486 10499 10500 10478 10469 10471 10464 10456 10454 10450 10445 10442 10437 10431 10426 10421 10416 10409
10498 10495 10495 10490 10489 10496 10501 10505 10508 10511 10516 10515 10518 10536 10544 10542 10548 10546 10533 10535 10545 10548 10547 10548 10554 10548 10531 10524 10530 10544 10560 10554 10534 10529 10528 10519 10517 10520 10520 10527 10532 10530 10528 10528 10524 10519 10514 10516 10521 10512 10502 10517 10529 10517 10508 10510 10500 10500 10528 10538 10510 10489 10495 10500 10494 10489 10484 10478 10479 10479 10478 10481 10479 10467 10460 10459 10453 10447 10443 10437 10432 10428 10422 10416 10412 10408 10401 10395
10483 10476 10478 10477 10473 10477 10481 10485 10487 10488 10498 10507 10514 10522 10521 10521 10531 10525 10514 10526 10541 10539 10533 10532 10534 10530 10518 10521 10536 10546 10544 10528 10513 10511 10511 10506 10507 10511 10511 10515 10521 10521 10520 10519 10514 10511 10507 10503 10504 10499 10489 10500 10513 10505 10499 10494 10485 10500 10524 10515 10493 10489 10489 10483 10480 10479 10476 10468 10466 10470 10469 10463 10459 10453 10449 10446 10441 10437 10433 10427 10421 10415 10408 10404 10400 10394 10388 10382